Content
SEND FEEDBACK

Daily
Averages
Monthly
Summary
United States of America

WILMINGTON, NORTH CAROLINA


Home > North America > United States > North Carolina
Elevation: 21 meters     Latitude: 34 16N     Longitude: 077 54W

WEATHER
 
SELECT A DAY
Number of Records: 208,565;   Date Range: 1/1/95 - 7/7/14
 
SHARE

PRINT THIS DATA

[ ← Previous Day ]
WEATHER ALMANAC - 14 AUGUST, 2013
[ Next Day → ]
[ °F ]   °C
Weather ElementAverageHighLow
Temperature23.9 °C27.8 °C (12:53 pm)20 °C (10:07 pm)
Dewpoint21.8 °C24.4 °C (5:53 am)16.7 °C (6:53 pm)
Humidity88.4 %100 % (1:03 am)69 % (12:53 pm)
Barometer1012.5 hPa1017.6 hPa (9:53 pm)1009.5 hPa (3:29 am)
Wind Speed14.6 km/h27.8 km/h (12:53 am)
Wind Gust38.9 km/h (12:57 am)
Weather ElementAverage
Visibility12.2 km
Wind DirectionS (175.5 °)

Weather ElementTotal
Precipitation106.43 mm
Cooling Degree Days5.6 (Base 18.3)
Growing Degree Days13.9 (Base 10)
Averaged from 56 records on 14 August, 2013
WEATHER CONDITIONS BREAKOUT
WIND DIRECTION BREAKOUT
WEATHER BY HOUR - 14 AUGUST, 2013
[ °F ]   °C
Local TimeTemperatureDewpointHumidityBarometerVisibilityWind DirectionWind SpeedGust SpeedPrecipitationEventsConditions
12:27 AM24 °C23 °C94 %1011.2 hPa3.2 kmWest (270°)20.4 km/h37 km/h0.51 mmRain-ThunderstormHeavy Thunderstorms and Rain
12:33 AM24 °C23 °C94 %1011.5 hPa2.4 kmSSW (210°)14.8 km/h33.3 km/h4.06 mmRainRain
12:37 AM24 °C23 °C94 %1011.5 hPa6.4 kmWest (260°)7.4 km/h27.8 km/h4.32 mmRainLight Rain
12:41 AM24 °C23 °C94 %1011.2 hPa11.3 kmWNW (290°)7.4 km/h4.32 mmRain-ThunderstormLight Rain
12:50 AM24 °C23 °C94 %1011.2 hPa2.9 kmWNW (290°)22.2 km/h27.8 km/h5.08 mmRain-ThunderstormHeavy Rain
12:53 AM23.9 °C22.8 °C94 %1011.2 hPa2.4 kmWNW (290°)27.8 km/h37 km/h8.38 mmRain-ThunderstormHeavy Rain
12:57 AM24 °C23 °C94 %1010.8 hPa1.9 kmWNW (290°)25.9 km/h38.9 km/h1.02 mmRain-ThunderstormHeavy Thunderstorms and Rain
1:00 AM23 °C22 °C94 %1010.8 hPa2.9 kmWest (280°)22.2 km/h38.9 km/h2.03 mmRain-ThunderstormHeavy Thunderstorms and Rain
1:03 AM23 °C23 °C100 %1010.8 hPa4 kmWest (270°)18.5 km/h38.9 km/h2.29 mmRain-ThunderstormThunderstorms and Rain
1:13 AM24 °C23 °C94 %1011.2 hPa1.9 kmWest (280°)22.2 km/h29.6 km/h5.33 mmRain-ThunderstormHeavy Thunderstorms and Rain
1:15 AM23 °C23 °C100 %1011.2 hPa2.4 kmWNW (290°)20.4 km/h7.37 mmRain-ThunderstormHeavy Rain
1:23 AM23 °C23 °C100 %1011.2 hPa3.2 kmWNW (300°)20.4 km/h9.4 mmRain-ThunderstormHeavy Thunderstorms and Rain
1:26 AM23 °C23 °C100 %1011.2 hPa2.9 kmNW (310°)20.4 km/h10.16 mmRain-ThunderstormHeavy Thunderstorms and Rain
1:36 AM23 °C23 °C100 %1010.8 hPa4.8 kmNNW (330°)20.4 km/h12.7 mmRain-ThunderstormLight Rain
1:48 AM24 °C23 °C94 %1010.5 hPa8 kmNNW (340°)14.8 km/h14.48 mmRainLight Rain
1:53 AM23.9 °C22.8 °C94 %1010.5 hPa16.1 kmNNW (330°)9.3 km/h14.48 mmRainLight Rain
2:06 AM24 °C23 °C94 %1010.5 hPa16.1 kmNW (320°)7.4 km/h0 mmThunderstormOvercast
2:34 AM24 °C23 °C94 %1010.2 hPa16.1 kmCalm0 mmRainLight Rain
2:53 AM24.4 °C23.3 °C94 %1010.2 hPa16.1 kmSW (220°)5.6 km/h0 mmRainLight Rain
3:03 AM24 °C23 °C94 %1009.8 hPa14.5 kmSW (220°)5.6 km/h0 mmRainLight Rain
3:14 AM24 °C23 °C94 %1009.8 hPa16.1 kmSW (230°)7.4 km/h0 mmThunderstormMostly Cloudy
3:29 AM24 °C23 °C94 %1009.5 hPa16.1 kmWSW (250°)11.1 km/h0 mmScattered Clouds
3:53 AM25 °C23.9 °C94 %1009.8 hPa16.1 kmWSW (240°)7.4 km/h0 mmPartly Cloudy
4:53 AM25 °C23.9 °C94 %1010.2 hPa16.1 kmSW (230°)7.4 km/hClear
5:00 AM25 °C24 °C94 %1010.2 hPa14.5 kmSW (230°)7.4 km/hScattered Clouds
5:09 AM25 °C24 °C94 %1010.2 hPa14.5 kmWest (260°)7.4 km/hMostly Cloudy
5:53 AM25 °C24.4 °C96 %1010.8 hPa12.9 kmWest (260°)14.8 km/hOvercast
6:09 AM25 °C24 °C94 %1010.8 hPa9.7 kmWest (270°)11.1 km/hOvercast
6:39 AM24 °C24 °C100 %1011.5 hPa11.3 kmWest (270°)11.1 km/hScattered Clouds
6:53 AM25 °C23.9 °C94 %1011.5 hPa9.7 kmWest (260°)7.4 km/hScattered Clouds
7:53 AM25 °C23.9 °C94 %1012.2 hPa14.5 kmWest (280°)13 km/hMostly Cloudy
8:53 AM24.4 °C22.8 °C91 %1012.5 hPa16.1 kmNW (320°)11.1 km/hMostly Cloudy
9:53 AM25 °C22.8 °C88 %1013.2 hPa16.1 kmNorth (360°)9.3 km/hPartly Cloudy
10:09 AM25 °C23 °C89 %1013.2 hPa16.1 kmNorth (10°)16.7 km/hMostly Cloudy
10:53 AM25.6 °C22.8 °C84 %1013.9 hPa16.1 kmNorth (360°)11.1 km/hMostly Cloudy
11:36 AM27 °C23 °C79 %1013.9 hPa16.1 kmNorth (10°)14.8 km/hMostly Cloudy
11:53 AM26.7 °C22.2 °C76 %1013.9 hPa16.1 kmNNE (20°)14.8 km/hMostly Cloudy
12:41 PM27 °C22 °C74 %1013.9 hPa16.1 kmNE (50°)14.8 km/hMostly Cloudy
12:53 PM27.8 °C21.7 °C69 %1013.9 hPa16.1 kmNNE (20°)14.8 km/hMostly Cloudy
1:53 PM27.8 °C22.8 °C74 %1013.9 hPa16.1 kmNE (40°)14.8 km/hMostly Cloudy
2:10 PM27 °C22 °C74 %1013.9 hPa16.1 kmCalmOvercast
2:53 PM25 °C22.8 °C88 %1013.9 hPa12.9 kmENE (70°)13 km/h0 mmRainLight Rain
3:53 PM23.9 °C21.7 °C87 %1014.2 hPa12.9 kmNNE (20°)20.4 km/h0.51 mmRainLight Rain
4:53 PM23.3 °C20 °C82 %1014.2 hPa16.1 kmNNE (30°)27.8 km/h0 mmOvercast
5:53 PM22.8 °C18.9 °C79 %1014.9 hPa16.1 kmNNE (20°)18.5 km/hOvercast
6:10 PM23 °C19 °C78 %1014.6 hPa16.1 kmNNE (30°)22.2 km/hScattered Clouds
6:44 PM22 °C17 °C73 %1015.2 hPa16.1 kmNNE (20°)22.2 km/hMostly Cloudy
6:53 PM21.7 °C16.7 °C73 %1015.6 hPa16.1 kmNNE (30°)24.1 km/hOvercast
7:25 PM22 °C17 °C73 %1015.6 hPa16.1 kmNNE (20°)18.5 km/hOvercast
7:53 PM21.1 °C17.2 °C78 %1015.6 hPa16.1 kmNE (40°)18.5 km/hMostly Cloudy
8:15 PM21 °C18 °C83 %1015.9 hPa16.1 kmNNE (20°)14.8 km/h0 mmMostly Cloudy
8:53 PM20.6 °C17.8 °C84 %1016.6 hPa16.1 kmNNE (20°)18.5 km/h0 mmRainLight Rain
9:53 PM20.6 °C16.7 °C78 %1017.6 hPa16.1 kmNE (40°)13 km/h0 mmRainLight Rain
10:07 PM20 °C17 °C83 %1017.6 hPa16.1 kmNE (40°)14.8 km/h0 mmRainLight Rain
10:53 PM20.6 °C17.2 °C81 %1017.6 hPa16.1 kmNNE (30°)14.8 km/h0 mmOvercast
11:53 PM20 °C16.7 °C81 %1017.3 hPa16.1 kmNE (40°)16.7 km/h0 mmRainLight Rain
Hourly data recorded from KILM, located 0 kilometers away from Wilmington, North Carolina







STORIES FROM OUR PARTNERS